Time,TemperatureF,DewpointF,PressureIn,WindDirection,WindDirectionDegrees,WindSpeedMPH,WindSpeedGustMPH,Humidity,HourlyPrecipIn,Conditions,Clouds,dailyrainin,SoftwareType,DateUTC
2015-03-05 00:00:00,21.9,16.7,30.19,NNE,13,2.0,4.0,80,0.00,,,0.00,vanprod-2.5,2015-03-05 05:00:00,
2015-03-05 00:05:00,21.9,16.7,30.19,North,350,2.0,3.0,80,0.00,,,0.00,vanprod-2.5,2015-03-05 05:05:00,
2015-03-05 00:10:00,21.8,16.6,30.19,North,355,2.0,2.0,80,0.00,,,0.00,vanprod-2.5,2015-03-05 05:10:00,
2015-03-05 00:15:00,21.7,16.2,30.19,North,9,3.0,3.0,79,0.00,,,0.00,vanprod-2.5,2015-03-05 05:15:00,
2015-03-05 00:20:00,21.4,15.0,30.19,North,349,5.0,5.0,76,0.00,,,0.00,vanprod-2.5,2015-03-05 05:20:00,
2015-03-05 00:25:00,21.1,13.5,30.19,North,353,3.0,6.0,72,0.00,,,0.00,vanprod-2.5,2015-03-05 05:25:00,
2015-03-05 00:30:00,20.9,12.7,30.19,NNW,343,2.0,2.0,70,0.00,,,0.00,vanprod-2.5,2015-03-05 05:30:00,
2015-03-05 00:35:00,20.7,12.5,30.18,North,349,3.0,3.0,70,0.00,,,0.00,vanprod-2.5,2015-03-05 05:35:00,
2015-03-05 00:40:00,20.6,12.4,30.18,NNW,344,3.0,6.0,70,0.00,,,0.00,vanprod-2.5,2015-03-05 05:40:00,
2015-03-05 00:45:00,20.4,12.2,30.18,NNW,342,3.0,6.0,70,0.00,,,0.00,vanprod-2.5,2015-03-05 05:45:00,
2015-03-05 00:50:00,20.2,12.0,30.18,NNW,343,4.0,6.0,70,0.00,,,0.00,vanprod-2.5,2015-03-05 05:50:00,
2015-03-05 00:55:00,20.1,12.2,30.17,NNE,16,4.0,4.0,71,0.00,,,0.00,vanprod-2.5,2015-03-05 05:55:00,
2015-03-05 01:00:00,20.1,12.5,30.18,North,8,4.0,7.0,72,0.00,,,0.00,vanprod-2.5,2015-03-05 06:00:00,
2015-03-05 01:05:00,20.0,12.4,30.19,North,358,3.0,5.0,72,0.00,,,0.00,vanprod-2.5,2015-03-05 06:05:00,
2015-03-05 01:10:00,20.0,12.8,30.21,NNW,334,3.0,10.0,73,0.00,,,0.00,vanprod-2.5,2015-03-05 06:10:00,
2015-03-05 01:15:00,20.0,12.4,30.20,North,9,5.0,5.0,72,0.00,,,0.00,vanprod-2.5,2015-03-05 06:15:00,
2015-03-05 01:20:00,19.9,12.7,30.20,North,2,3.0,3.0,73,0.00,,,0.00,vanprod-2.5,2015-03-05 06:20:00,
2015-03-05 01:25:00,19.9,13.0,30.20,North,359,3.0,4.0,74,0.00,,,0.00,vanprod-2.5,2015-03-05 06:25:00,
2015-03-05 01:30:00,19.8,12.6,30.20,North,357,3.0,8.0,73,0.00,,,0.00,vanprod-2.5,2015-03-05 06:30:00,
2015-03-05 01:35:00,19.6,11.7,30.19,North,357,3.0,12.0,71,0.00,,,0.00,vanprod-2.5,2015-03-05 06:35:00,
2015-03-05 01:40:00,19.4,11.5,30.20,North,359,4.0,4.0,71,0.00,,,0.00,vanprod-2.5,2015-03-05 06:40:00,
2015-03-05 01:45:00,19.3,11.1,30.20,North,4,3.0,5.0,70,0.00,,,0.00,vanprod-2.5,2015-03-05 06:45:00,
2015-03-05 01:50:00,19.2,11.0,30.20,North,5,4.0,4.0,70,0.00,,,0.00,vanprod-2.5,2015-03-05 06:50:00,
2015-03-05 01:55:00,19.2,11.0,30.20,North,1,4.0,5.0,70,0.00,,,0.00,vanprod-2.5,2015-03-05 06:55:00,
2015-03-05 02:00:00,19.1,10.3,30.20,North,354,3.0,12.0,68,0.00,,,0.00,vanprod-2.5,2015-03-05 07:00:00,
2015-03-05 02:05:00,19.0,9.9,30.21,North,8,6.0,6.0,67,0.00,,,0.00,vanprod-2.5,2015-03-05 07:05:00,
2015-03-05 02:10:00,18.9,9.8,30.21,North,357,4.0,6.0,67,0.00,,,0.00,vanprod-2.5,2015-03-05 07:10:00,
2015-03-05 02:15:00,18.8,9.3,30.21,North,355,6.0,6.0,66,0.00,,,0.00,vanprod-2.5,2015-03-05 07:15:00,
2015-03-05 02:20:00,18.6,9.1,30.22,North,7,5.0,7.0,66,0.00,,,0.00,vanprod-2.5,2015-03-05 07:20:00,
2015-03-05 02:25:00,18.5,8.7,30.21,NNW,342,5.0,5.0,65,0.00,,,0.00,vanprod-2.5,2015-03-05 07:25:00,
2015-03-05 02:30:00,18.5,8.7,30.22,North,1,5.0,5.0,65,0.00,,,0.00,vanprod-2.5,2015-03-05 07:30:00,
2015-03-05 02:35:00,18.4,9.0,30.22,NNW,341,3.0,3.0,66,0.00,,,0.00,vanprod-2.5,2015-03-05 07:35:00,
2015-03-05 02:40:00,18.3,8.9,30.22,North,1,3.0,5.0,66,0.00,,,0.00,vanprod-2.5,2015-03-05 07:40:00,
2015-03-05 02:45:00,18.3,8.9,30.21,North,360,3.0,3.0,66,0.00,,,0.00,vanprod-2.5,2015-03-05 07:45:00,
2015-03-05 02:50:00,18.2,8.8,30.21,North,8,5.0,6.0,66,0.00,,,0.00,vanprod-2.5,2015-03-05 07:50:00,
2015-03-05 02:55:00,18.2,9.1,30.21,North,2,3.0,3.0,67,0.00,,,0.00,vanprod-2.5,2015-03-05 07:55:00,
2015-03-05 03:00:00,18.2,9.1,30.22,NNE,13,2.0,3.0,67,0.00,,,0.00,vanprod-2.5,2015-03-05 08:00:00,
2015-03-05 03:05:00,18.2,9.4,30.22,North,3,5.0,10.0,68,0.00,,,0.00,vanprod-2.5,2015-03-05 08:05:00,
2015-03-05 03:10:00,18.1,9.0,30.22,NNW,347,3.0,3.0,67,0.00,,,0.00,vanprod-2.5,2015-03-05 08:10:00,
2015-03-05 03:15:00,18.1,9.3,30.22,NNW,345,2.0,4.0,68,0.00,,,0.00,vanprod-2.5,2015-03-05 08:15:00,
2015-03-05 03:20:00,18.0,9.2,30.23,North,9,4.0,6.0,68,0.00,,,0.00,vanprod-2.5,2015-03-05 08:20:00,
2015-03-05 03:25:00,18.1,9.7,30.21,North,355,2.0,2.0,69,0.00,,,0.00,vanprod-2.5,2015-03-05 08:25:00,
2015-03-05 03:30:00,18.0,9.6,30.21,North,10,4.0,4.0,69,0.00,,,0.00,vanprod-2.5,2015-03-05 08:30:00,
2015-03-05 03:35:00,18.0,9.9,30.22,North,353,2.0,3.0,70,0.00,,,0.00,vanprod-2.5,2015-03-05 08:35:00,
2015-03-05 03:40:00,18.0,10.2,30.23,North,8,2.0,6.0,71,0.00,,,0.00,vanprod-2.5,2015-03-05 08:40:00,
2015-03-05 03:45:00,18.0,10.2,30.23,North,350,1.0,3.0,71,0.00,,,0.00,vanprod-2.5,2015-03-05 08:45:00,
2015-03-05 03:50:00,18.0,10.2,30.24,North,350,4.0,7.0,71,0.00,,,0.00,vanprod-2.5,2015-03-05 08:50:00,
2015-03-05 03:55:00,18.1,10.3,30.23,North,356,1.0,0.0,71,0.00,,,0.00,vanprod-2.5,2015-03-05 08:55:00,
2015-03-05 04:00:00,18.0,10.5,30.23,North,1,2.0,5.0,72,0.00,,,0.00,vanprod-2.5,2015-03-05 09:00:00,
2015-03-05 04:05:00,18.0,10.5,30.22,NNE,21,1.0,2.0,72,0.00,,,0.00,vanprod-2.5,2015-03-05 09:05:00,
2015-03-05 04:10:00,18.0,10.5,30.23,North,350,4.0,9.0,72,0.00,,,0.00,vanprod-2.5,2015-03-05 09:10:00,
2015-03-05 04:15:00,18.0,10.5,30.23,NNE,13,3.0,4.0,72,0.00,,,0.00,vanprod-2.5,2015-03-05 09:15:00,
2015-03-05 04:20:00,18.0,11.1,30.22,NNE,27,2.0,2.0,74,0.00,,,0.00,vanprod-2.5,2015-03-05 09:20:00,
2015-03-05 04:25:00,18.0,11.1,30.22,North,355,3.0,4.0,74,0.00,,,0.00,vanprod-2.5,2015-03-05 09:25:00,
2015-03-05 04:30:00,18.0,10.8,30.22,North,10,3.0,5.0,73,0.00,,,0.00,vanprod-2.5,2015-03-05 09:30:00,
2015-03-05 04:35:00,18.0,11.1,30.23,North,8,2.0,4.0,74,0.00,,,0.00,vanprod-2.5,2015-03-05 09:35:00,
2015-03-05 04:40:00,18.0,11.1,30.22,NNE,12,3.0,3.0,74,0.00,,,0.00,vanprod-2.5,2015-03-05 09:40:00,
2015-03-05 04:45:00,18.0,11.1,30.22,North,11,4.0,6.0,74,0.00,,,0.00,vanprod-2.5,2015-03-05 09:45:00,
2015-03-05 04:50:00,17.8,10.6,30.23,NNE,13,2.0,4.0,73,0.00,,,0.00,vanprod-2.5,2015-03-05 09:50:00,
2015-03-05 04:55:00,17.8,10.3,30.23,NNE,14,3.0,4.0,72,0.00,,,0.00,vanprod-2.5,2015-03-05 09:55:00,
2015-03-05 05:00:00,17.7,9.6,30.23,NNE,18,4.0,10.0,70,0.00,,,0.00,vanprod-2.5,2015-03-05 10:00:00,
2015-03-05 05:05:00,17.5,9.1,30.22,NNE,13,3.0,5.0,69,0.00,,,0.00,vanprod-2.5,2015-03-05 10:05:00,
2015-03-05 05:10:00,17.5,9.1,30.24,NNE,17,3.0,4.0,69,0.00,,,0.00,vanprod-2.5,2015-03-05 10:10:00,
2015-03-05 05:15:00,17.4,9.0,30.25,NE,36,4.0,5.0,69,0.00,,,0.00,vanprod-2.5,2015-03-05 10:15:00,
2015-03-05 05:20:00,17.5,9.1,30.25,NNE,18,2.0,4.0,69,0.00,,,0.00,vanprod-2.5,2015-03-05 10:20:00,
2015-03-05 05:25:00,17.4,9.0,30.26,NNE,26,3.0,7.0,69,0.00,,,0.00,vanprod-2.5,2015-03-05 10:25:00,
2015-03-05 05:30:00,17.4,8.7,30.25,NNW,347,3.0,3.0,68,0.00,,,0.00,vanprod-2.5,2015-03-05 10:30:00,
2015-03-05 05:35:00,17.4,8.3,30.24,NNW,343,3.0,5.0,67,0.00,,,0.00,vanprod-2.5,2015-03-05 10:35:00,
2015-03-05 05:40:00,17.3,8.6,30.25,NNE,12,2.0,2.0,68,0.00,,,0.00,vanprod-2.5,2015-03-05 10:40:00,
2015-03-05 05:45:00,17.3,8.9,30.25,NNW,345,3.0,4.0,69,0.00,,,0.00,vanprod-2.5,2015-03-05 10:45:00,
2015-03-05 05:50:00,17.3,8.9,30.25,North,358,3.0,5.0,69,0.00,,,0.00,vanprod-2.5,2015-03-05 10:50:00,
2015-03-05 05:55:00,17.3,8.9,30.25,North,4,1.0,2.0,69,0.00,,,0.00,vanprod-2.5,2015-03-05 10:55:00,
2015-03-05 06:00:00,17.3,9.2,30.25,North,360,2.0,2.0,70,0.00,,,0.00,vanprod-2.5,2015-03-05 11:00:00,
2015-03-05 06:05:00,17.3,9.5,30.25,North,358,2.0,2.0,71,0.00,,,0.00,vanprod-2.5,2015-03-05 11:05:00,
2015-03-05 06:10:00,17.3,9.5,30.24,NNE,14,1.0,3.0,71,0.00,,,0.00,vanprod-2.5,2015-03-05 11:10:00,
2015-03-05 06:15:00,17.3,9.8,30.25,NNE,28,2.0,4.0,72,0.00,,,0.00,vanprod-2.5,2015-03-05 11:15:00,
2015-03-05 06:20:00,17.3,10.1,30.25,NE,49,2.0,2.0,73,0.00,,,0.00,vanprod-2.5,2015-03-05 11:20:00,
2015-03-05 06:25:00,17.3,10.1,30.25,NE,49,3.0,4.0,73,0.00,,,0.00,vanprod-2.5,2015-03-05 11:25:00,
2015-03-05 06:30:00,17.2,10.0,30.26,NNE,26,2.0,3.0,73,0.00,,,0.00,vanprod-2.5,2015-03-05 11:30:00,
2015-03-05 06:35:00,17.2,9.7,30.27,NNE,16,3.0,4.0,72,0.00,,,0.00,vanprod-2.5,2015-03-05 11:35:00,
2015-03-05 06:40:00,17.1,9.0,30.28,NNE,12,3.0,4.0,70,0.00,,,0.00,vanprod-2.5,2015-03-05 11:40:00,
2015-03-05 06:45:00,17.1,9.0,30.28,North,10,3.0,6.0,70,0.00,,,0.00,vanprod-2.5,2015-03-05 11:45:00,
2015-03-05 06:50:00,17.1,9.0,30.28,North,4,3.0,4.0,70,0.00,,,0.00,vanprod-2.5,2015-03-05 11:50:00,
2015-03-05 06:55:00,17.0,8.6,30.27,NNE,29,3.0,4.0,69,0.00,,,0.00,vanprod-2.5,2015-03-05 11:55:00,
2015-03-05 07:00:00,17.0,8.9,30.24,NNE,28,4.0,4.0,70,0.00,,,0.00,vanprod-2.5,2015-03-05 12:00:00,
2015-03-05 07:05:00,16.8,8.1,30.25,North,359,3.0,4.0,68,0.00,,,0.00,vanprod-2.5,2015-03-05 12:05:00,
2015-03-05 07:10:00,16.8,8.1,30.25,North,8,1.0,3.0,68,0.00,,,0.00,vanprod-2.5,2015-03-05 12:10:00,
2015-03-05 07:15:00,16.7,8.0,30.24,NNE,14,3.0,4.0,68,0.00,,,0.00,vanprod-2.5,2015-03-05 12:15:00,
2015-03-05 07:20:00,16.7,8.0,30.25,North,357,3.0,3.0,68,0.00,,,0.00,vanprod-2.5,2015-03-05 12:20:00,
2015-03-05 07:25:00,16.7,8.3,30.24,North,9,2.0,2.0,69,0.00,,,0.00,vanprod-2.5,2015-03-05 12:25:00,
2015-03-05 07:30:00,16.7,8.3,30.25,North,8,3.0,6.0,69,0.00,,,0.00,vanprod-2.5,2015-03-05 12:30:00,
2015-03-05 07:35:00,16.7,8.0,30.25,North,4,3.0,3.0,68,0.00,,,0.00,vanprod-2.5,2015-03-05 12:35:00,
2015-03-05 07:40:00,16.8,8.7,30.24,North,360,1.0,2.0,70,0.00,,,0.00,vanprod-2.5,2015-03-05 12:40:00,
2015-03-05 07:45:00,16.8,8.7,30.24,NNE,15,2.0,4.0,70,0.00,,,0.00,vanprod-2.5,2015-03-05 12:45:00,
2015-03-05 07:50:00,16.8,8.7,30.24,NNE,17,2.0,4.0,70,0.00,,,0.00,vanprod-2.5,2015-03-05 12:50:00,
2015-03-05 07:55:00,16.7,8.3,30.25,NNE,17,3.0,3.0,69,0.00,,,0.00,vanprod-2.5,2015-03-05 12:55:00,
2015-03-05 08:00:00,16.6,7.9,30.24,North,358,4.0,4.0,68,0.00,,,0.00,vanprod-2.5,2015-03-05 13:00:00,
2015-03-05 08:05:00,16.6,7.9,30.25,NNE,16,2.0,2.0,68,0.00,,,0.00,vanprod-2.5,2015-03-05 13:05:00,
2015-03-05 08:10:00,16.5,7.8,30.24,NNW,346,1.0,4.0,68,0.00,,,0.00,vanprod-2.5,2015-03-05 13:10:00,
2015-03-05 08:15:00,16.6,7.6,30.24,North,356,2.0,2.0,67,0.00,,,0.00,vanprod-2.5,2015-03-05 13:15:00,
2015-03-05 08:20:00,16.6,7.9,30.24,NNW,337,1.0,2.0,68,0.00,,,0.00,vanprod-2.5,2015-03-05 13:20:00,
2015-03-05 08:25:00,16.7,7.3,30.24,North,350,2.0,2.0,66,0.00,,,0.00,vanprod-2.5,2015-03-05 13:25:00,
2015-03-05 08:30:00,16.8,7.8,30.25,North,5,1.0,3.0,67,0.00,,,0.00,vanprod-2.5,2015-03-05 13:30:00,
2015-03-05 08:35:00,16.8,7.4,30.26,NNE,15,2.0,2.0,66,0.00,,,0.00,vanprod-2.5,2015-03-05 13:35:00,
2015-03-05 08:40:00,16.8,7.4,30.28,NNW,344,1.0,1.0,66,0.00,,,0.00,vanprod-2.5,2015-03-05 13:40:00,
2015-03-05 08:45:00,16.8,7.4,30.28,North,3,1.0,3.0,66,0.00,,,0.00,vanprod-2.5,2015-03-05 13:45:00,
2015-03-05 08:50:00,16.8,7.1,30.29,NNW,341,1.0,2.0,65,0.00,,,0.00,vanprod-2.5,2015-03-05 13:50:00,
2015-03-05 08:55:00,16.8,7.1,30.29,NNW,346,3.0,5.0,65,0.00,,,0.00,vanprod-2.5,2015-03-05 13:55:00,
2015-03-05 09:00:00,16.9,7.2,30.30,North,352,1.0,2.0,65,0.00,,,0.00,vanprod-2.5,2015-03-05 14:00:00,
2015-03-05 09:05:00,17.0,7.3,30.31,North,7,2.0,2.0,65,0.00,,,0.00,vanprod-2.5,2015-03-05 14:05:00,
2015-03-05 09:10:00,17.1,7.0,30.31,NNE,26,2.0,2.0,64,0.00,,,0.00,vanprod-2.5,2015-03-05 14:10:00,
2015-03-05 09:15:00,17.3,7.6,30.32,NNW,339,1.0,0.0,65,0.00,,,0.00,vanprod-2.5,2015-03-05 14:15:00,
2015-03-05 09:20:00,17.4,7.3,30.32,North,9,1.0,5.0,64,0.00,,,0.00,vanprod-2.5,2015-03-05 14:20:00,
2015-03-05 09:25:00,17.3,6.9,30.30,North,9,2.0,2.0,63,0.00,,,0.00,vanprod-2.5,2015-03-05 14:25:00,
2015-03-05 09:30:00,17.3,6.9,30.30,North,8,2.0,3.0,63,0.00,,,0.00,vanprod-2.5,2015-03-05 14:30:00,
2015-03-05 09:35:00,17.3,6.9,30.29,NNE,12,3.0,3.0,63,0.00,,,0.00,vanprod-2.5,2015-03-05 14:35:00,
2015-03-05 09:40:00,17.3,7.2,30.29,North,359,3.0,3.0,64,0.00,,,0.00,vanprod-2.5,2015-03-05 14:40:00,
2015-03-05 09:45:00,17.4,7.3,30.28,NNE,17,2.0,2.0,64,0.00,,,0.00,vanprod-2.5,2015-03-05 14:45:00,
2015-03-05 09:50:00,17.5,7.4,30.29,North,357,3.0,4.0,64,0.00,,,0.00,vanprod-2.5,2015-03-05 14:50:00,
2015-03-05 09:55:00,17.6,7.5,30.27,NNE,17,2.0,5.0,64,0.00,,,0.00,vanprod-2.5,2015-03-05 14:55:00,
2015-03-05 10:00:00,17.6,7.5,30.27,North,355,2.0,4.0,64,0.00,,,0.00,vanprod-2.5,2015-03-05 15:00:00,
2015-03-05 10:05:00,17.5,7.4,30.27,NNW,342,2.0,0.0,64,0.00,,,0.00,vanprod-2.5,2015-03-05 15:05:00,
2015-03-05 10:10:00,17.6,7.5,30.27,North,4,2.0,2.0,64,0.00,,,0.00,vanprod-2.5,2015-03-05 15:10:00,
2015-03-05 10:15:00,17.7,7.6,30.29,NNE,17,2.0,2.0,64,0.00,,,0.00,vanprod-2.5,2015-03-05 15:15:00,
2015-03-05 10:20:00,17.8,7.4,30.29,North,360,2.0,3.0,63,0.00,,,0.00,vanprod-2.5,2015-03-05 15:20:00,
2015-03-05 10:25:00,17.9,7.4,30.31,NNE,28,3.0,3.0,63,0.00,,,0.00,vanprod-2.5,2015-03-05 15:25:00,
2015-03-05 10:30:00,18.1,7.6,30.31,North,356,2.0,2.0,63,0.00,,,0.00,vanprod-2.5,2015-03-05 15:30:00,
2015-03-05 10:35:00,18.2,7.4,30.30,NNW,341,2.0,3.0,62,0.00,,,0.00,vanprod-2.5,2015-03-05 15:35:00,
2015-03-05 10:40:00,18.3,7.5,30.30,North,3,2.0,2.0,62,0.00,,,0.00,vanprod-2.5,2015-03-05 15:40:00,
2015-03-05 10:45:00,18.5,8.0,30.29,North,1,1.0,0.0,63,0.00,,,0.00,vanprod-2.5,2015-03-05 15:45:00,
2015-03-05 10:50:00,18.5,7.7,30.29,North,354,2.0,3.0,62,0.00,,,0.00,vanprod-2.5,2015-03-05 15:50:00,
2015-03-05 10:55:00,18.5,7.7,30.29,NE,38,2.0,2.0,62,0.00,,,0.00,vanprod-2.5,2015-03-05 15:55:00,
2015-03-05 11:00:00,18.6,7.4,30.30,NNE,17,4.0,4.0,61,0.00,,,0.00,vanprod-2.5,2015-03-05 16:00:00,
2015-03-05 11:05:00,18.9,8.0,30.29,NNW,343,3.0,4.0,62,0.00,,,0.00,vanprod-2.5,2015-03-05 16:05:00,
2015-03-05 11:10:00,19.5,9.0,30.30,WNW,301,2.0,3.0,63,0.00,,,0.00,vanprod-2.5,2015-03-05 16:10:00,
2015-03-05 11:15:00,19.7,8.8,30.31,NW,325,1.0,5.0,62,0.00,,,0.00,vanprod-2.5,2015-03-05 16:15:00,
2015-03-05 11:20:00,19.6,8.3,30.30,NW,320,3.0,3.0,61,0.00,,,0.00,vanprod-2.5,2015-03-05 16:20:00,
2015-03-05 11:25:00,19.6,8.7,30.30,NNW,336,2.0,2.0,62,0.00,,,0.00,vanprod-2.5,2015-03-05 16:25:00,
2015-03-05 11:30:00,19.9,9.0,30.31,WNW,299,2.0,2.0,62,0.00,,,0.00,vanprod-2.5,2015-03-05 16:30:00,
2015-03-05 11:35:00,20.1,8.5,30.31,North,350,3.0,4.0,60,0.00,,,0.00,vanprod-2.5,2015-03-05 16:35:00,
2015-03-05 11:40:00,20.1,8.5,30.32,NNW,333,1.0,2.0,60,0.00,,,0.00,vanprod-2.5,2015-03-05 16:40:00,
2015-03-05 11:45:00,20.0,8.0,30.31,NW,320,1.0,2.0,59,0.00,,,0.00,vanprod-2.5,2015-03-05 16:45:00,
2015-03-05 11:50:00,20.1,8.5,30.31,North,1,3.0,3.0,60,0.00,,,0.00,vanprod-2.5,2015-03-05 16:50:00,
2015-03-05 11:55:00,20.3,8.6,30.31,North,10,2.0,4.0,60,0.00,,,0.00,vanprod-2.5,2015-03-05 16:55:00,
2015-03-05 12:00:00,20.1,8.1,30.31,North,6,3.0,4.0,59,0.00,,,0.00,vanprod-2.5,2015-03-05 17:00:00,
2015-03-05 12:05:00,20.1,8.1,30.31,North,352,4.0,4.0,59,0.00,,,0.00,vanprod-2.5,2015-03-05 17:05:00,
2015-03-05 12:16:00,20.1,8.1,30.33,North,352,4.0,0.0,59,0.00,,,0.00,vanprod-2.5,2015-03-05 17:16:00,
2015-03-05 12:25:00,21.1,9.0,30.32,North,352,4.0,4.0,59,0.00,,,0.00,vanprod-2.5,2015-03-05 17:25:00,
2015-03-05 12:30:00,21.2,7.6,30.32,NNE,20,4.0,7.0,55,0.00,,,0.00,vanprod-2.5,2015-03-05 17:30:00,
2015-03-05 12:35:00,20.9,7.7,30.32,NNE,20,3.0,8.0,56,0.00,,,0.00,vanprod-2.5,2015-03-05 17:35:00,
2015-03-05 12:40:00,21.0,7.4,30.32,NNE,25,2.0,5.0,55,0.00,,,0.00,vanprod-2.5,2015-03-05 17:40:00,
2015-03-05 12:45:00,21.4,8.5,30.32,North,6,3.0,6.0,57,0.00,,,0.00,vanprod-2.5,2015-03-05 17:45:00,
2015-03-05 12:50:00,21.5,7.8,30.32,North,352,2.0,3.0,55,0.00,,,0.00,vanprod-2.5,2015-03-05 17:50:00,
2015-03-05 12:55:00,21.7,8.4,30.32,North,358,2.0,4.0,56,0.00,,,0.00,vanprod-2.5,2015-03-05 17:55:00,
2015-03-05 13:00:00,22.0,9.5,30.32,North,350,2.0,4.0,58,0.00,,,0.00,vanprod-2.5,2015-03-05 18:00:00,
2015-03-05 13:05:00,22.1,8.0,30.32,North,350,2.0,2.0,54,0.00,,,0.00,vanprod-2.5,2015-03-05 18:05:00,
2015-03-05 13:10:00,22.7,8.6,30.32,NNE,19,1.0,4.0,54,0.00,,,0.00,vanprod-2.5,2015-03-05 18:10:00,
2015-03-05 13:15:00,23.2,8.6,30.32,NNW,345,2.0,6.0,53,0.00,,,0.00,vanprod-2.5,2015-03-05 18:15:00,
2015-03-05 13:20:00,23.1,8.9,30.32,NNE,24,4.0,7.0,54,0.00,,,0.00,vanprod-2.5,2015-03-05 18:20:00,
2015-03-05 13:25:00,22.8,8.2,30.32,NNE,24,2.0,3.0,53,0.00,,,0.00,vanprod-2.5,2015-03-05 18:25:00,
2015-03-05 13:30:00,22.9,9.6,30.32,North,356,1.0,4.0,56,0.00,,,0.00,vanprod-2.5,2015-03-05 18:30:00,
2015-03-05 13:35:00,23.4,9.6,30.32,NNW,334,1.0,4.0,55,0.00,,,0.00,vanprod-2.5,2015-03-05 18:35:00,
2015-03-05 13:40:00,23.3,9.5,30.33,NNE,18,1.0,1.0,55,0.00,,,0.00,vanprod-2.5,2015-03-05 18:40:00,
2015-03-05 13:45:00,23.3,8.7,30.32,NW,310,0.0,1.0,53,0.00,,,0.00,vanprod-2.5,2015-03-05 18:45:00,
2015-03-05 13:50:00,23.5,9.7,30.32,WNW,301,3.0,5.0,55,0.00,,,0.00,vanprod-2.5,2015-03-05 18:50:00,
2015-03-05 13:55:00,23.2,8.6,30.32,North,3,1.0,6.0,53,0.00,,,0.00,vanprod-2.5,2015-03-05 18:55:00,
2015-03-05 14:00:00,23.2,8.6,30.32,NNW,341,4.0,7.0,53,0.00,,,0.00,vanprod-2.5,2015-03-05 19:00:00,
2015-03-05 14:05:00,23.1,8.5,30.32,NNE,21,4.0,6.0,53,0.00,,,0.00,vanprod-2.5,2015-03-05 19:05:00,
2015-03-05 14:10:00,23.3,8.7,30.32,NNW,332,2.0,2.0,53,0.00,,,0.00,vanprod-2.5,2015-03-05 19:10:00,
2015-03-05 14:15:00,24.4,10.2,30.33,NW,311,2.0,4.0,54,0.00,,,0.00,vanprod-2.5,2015-03-05 19:15:00,
2015-03-05 14:20:00,24.6,9.5,30.32,West,280,2.0,8.0,52,0.00,,,0.00,vanprod-2.5,2015-03-05 19:20:00,
2015-03-05 14:25:00,24.5,9.0,30.33,North,6,4.0,8.0,51,0.00,,,0.00,vanprod-2.5,2015-03-05 19:25:00,
2015-03-05 14:30:00,24.0,8.9,30.33,NNW,341,3.0,6.0,52,0.00,,,0.00,vanprod-2.5,2015-03-05 19:30:00,
2015-03-05 14:35:00,24.3,8.8,30.33,NNW,341,3.0,5.0,51,0.00,,,0.00,vanprod-2.5,2015-03-05 19:35:00,
2015-03-05 14:40:00,24.3,8.8,30.32,NNW,330,2.0,2.0,51,0.00,,,0.00,vanprod-2.5,2015-03-05 19:40:00,
2015-03-05 14:45:00,24.3,8.8,30.33,NNW,332,4.0,4.0,51,0.00,,,0.00,vanprod-2.5,2015-03-05 19:45:00,
2015-03-05 14:50:00,24.3,9.6,30.32,WNW,287,3.0,6.0,53,0.00,,,0.00,vanprod-2.5,2015-03-05 19:50:00,
2015-03-05 14:55:00,24.0,8.9,30.33,WNW,291,3.0,3.0,52,0.00,,,0.00,vanprod-2.5,2015-03-05 19:55:00,
2015-03-05 15:00:00,23.7,8.7,30.32,WNW,282,3.0,7.0,52,0.00,,,0.00,vanprod-2.5,2015-03-05 20:00:00,
2015-03-05 15:05:00,23.3,7.9,30.33,NW,305,4.0,6.0,51,0.00,,,0.00,vanprod-2.5,2015-03-05 20:05:00,
2015-03-05 15:10:00,23.1,8.1,30.34,NW,322,4.0,7.0,52,0.00,,,0.00,vanprod-2.5,2015-03-05 20:10:00,
2015-03-05 15:15:00,23.0,8.4,30.34,NW,315,2.0,2.0,53,0.00,,,0.00,vanprod-2.5,2015-03-05 20:15:00,
2015-03-05 15:20:00,22.9,7.5,30.34,NW,317,3.0,8.0,51,0.00,,,0.00,vanprod-2.5,2015-03-05 20:20:00,
2015-03-05 15:25:00,22.7,7.7,30.34,WNW,295,4.0,9.0,52,0.00,,,0.00,vanprod-2.5,2015-03-05 20:25:00,
2015-03-05 15:30:00,22.6,7.2,30.34,NNW,338,2.0,4.0,51,0.00,,,0.00,vanprod-2.5,2015-03-05 20:30:00,
2015-03-05 15:35:00,22.4,7.0,30.35,WNW,296,2.0,3.0,51,0.00,,,0.00,vanprod-2.5,2015-03-05 20:35:00,
2015-03-05 15:40:00,22.4,7.5,30.35,NW,318,3.0,7.0,52,0.00,,,0.00,vanprod-2.5,2015-03-05 20:40:00,
2015-03-05 15:45:00,22.4,7.0,30.35,NW,310,4.0,4.0,51,0.00,,,0.00,vanprod-2.5,2015-03-05 20:45:00,
2015-03-05 15:50:00,22.4,7.5,30.35,WNW,303,3.0,6.0,52,0.00,,,0.00,vanprod-2.5,2015-03-05 20:50:00,
2015-03-05 15:55:00,22.0,6.7,30.35,NW,311,3.0,4.0,51,0.00,,,0.00,vanprod-2.5,2015-03-05 20:55:00,
2015-03-05 16:00:00,22.2,7.7,30.36,WNW,284,3.0,5.0,53,0.00,,,0.00,vanprod-2.5,2015-03-05 21:00:00,
2015-03-05 16:05:00,22.4,8.3,30.36,WNW,302,3.0,6.0,54,0.00,,,0.00,vanprod-2.5,2015-03-05 21:05:00,
2015-03-05 16:10:00,22.4,8.3,30.37,NW,310,2.0,5.0,54,0.00,,,0.00,vanprod-2.5,2015-03-05 21:10:00,
2015-03-05 16:15:00,22.4,8.7,30.37,West,281,1.0,5.0,55,0.00,,,0.00,vanprod-2.5,2015-03-05 21:15:00,
2015-03-05 16:20:00,22.2,7.3,30.38,NNW,338,4.0,6.0,52,0.00,,,0.00,vanprod-2.5,2015-03-05 21:20:00,
2015-03-05 16:25:00,21.8,6.9,30.38,NW,313,3.0,4.0,52,0.00,,,0.00,vanprod-2.5,2015-03-05 21:25:00,
2015-03-05 16:30:00,21.5,7.0,30.38,NW,326,5.0,5.0,53,0.00,,,0.00,vanprod-2.5,2015-03-05 21:30:00,
2015-03-05 16:35:00,21.4,7.4,30.38,NNW,340,4.0,8.0,54,0.00,,,0.00,vanprod-2.5,2015-03-05 21:35:00,
2015-03-05 16:40:00,21.3,6.8,30.38,NW,315,4.0,4.0,53,0.00,,,0.00,vanprod-2.5,2015-03-05 21:40:00,
2015-03-05 16:45:00,21.3,7.3,30.39,NW,304,1.0,4.0,54,0.00,,,0.00,vanprod-2.5,2015-03-05 21:45:00,
2015-03-05 16:50:00,21.5,7.4,30.39,NNW,339,1.0,4.0,54,0.00,,,0.00,vanprod-2.5,2015-03-05 21:50:00,
2015-03-05 16:55:00,21.3,7.3,30.39,WSW,254,3.0,6.0,54,0.00,,,0.00,vanprod-2.5,2015-03-05 21:55:00,
2015-03-05 17:00:00,21.4,7.4,30.40,WNW,302,3.0,4.0,54,0.00,,,0.00,vanprod-2.5,2015-03-05 22:00:00,
2015-03-05 17:05:00,21.2,7.2,30.40,North,352,2.0,4.0,54,0.00,,,0.00,vanprod-2.5,2015-03-05 22:05:00,
2015-03-05 17:10:00,21.1,7.1,30.40,NW,325,2.0,2.0,54,0.00,,,0.00,vanprod-2.5,2015-03-05 22:10:00,
2015-03-05 17:15:00,21.0,7.0,30.41,NNW,343,4.0,6.0,54,0.00,,,0.00,vanprod-2.5,2015-03-05 22:15:00,
2015-03-05 17:20:00,20.6,7.0,30.41,NW,315,3.0,3.0,55,0.00,,,0.00,vanprod-2.5,2015-03-05 22:20:00,
2015-03-05 17:25:00,20.5,6.5,30.41,WNW,299,3.0,3.0,54,0.00,,,0.00,vanprod-2.5,2015-03-05 22:25:00,
2015-03-05 17:30:00,20.2,6.6,30.41,SSW,208,1.0,3.0,55,0.00,,,0.00,vanprod-2.5,2015-03-05 22:30:00,
2015-03-05 17:35:00,20.2,6.6,30.42,SW,232,4.0,9.0,55,0.00,,,0.00,vanprod-2.5,2015-03-05 22:35:00,
2015-03-05 17:40:00,19.9,6.7,30.42,WNW,287,1.0,1.0,56,0.00,,,0.00,vanprod-2.5,2015-03-05 22:40:00,
2015-03-05 17:45:00,19.8,6.7,30.42,NNW,345,1.0,2.0,56,0.00,,,0.00,vanprod-2.5,2015-03-05 22:45:00,
2015-03-05 17:50:00,19.7,6.6,30.42,WNW,302,1.0,5.0,56,0.00,,,0.00,vanprod-2.5,2015-03-05 22:50:00,
2015-03-05 17:55:00,19.5,6.4,30.42,NW,320,2.0,3.0,56,0.00,,,0.00,vanprod-2.5,2015-03-05 22:55:00,
2015-03-05 18:00:00,19.2,6.5,30.42,North,358,3.0,5.0,57,0.00,,,0.00,vanprod-2.5,2015-03-05 23:00:00,
2015-03-05 18:05:00,18.8,6.5,30.43,South,189,1.0,1.0,58,0.00,,,0.00,vanprod-2.5,2015-03-05 23:05:00,
2015-03-05 18:10:00,18.6,6.3,30.43,South,189,1.0,2.0,58,0.00,,,0.00,vanprod-2.5,2015-03-05 23:10:00,
2015-03-05 18:15:00,18.3,6.4,30.43,North,357,1.0,2.0,59,0.00,,,0.00,vanprod-2.5,2015-03-05 23:15:00,
2015-03-05 18:20:00,18.1,6.2,30.44,South,189,1.0,4.0,59,0.00,,,0.00,vanprod-2.5,2015-03-05 23:20:00,
2015-03-05 18:25:00,17.9,6.4,30.44,South,189,1.0,1.0,60,0.00,,,0.00,vanprod-2.5,2015-03-05 23:25:00,
2015-03-05 18:30:00,17.7,6.5,30.44,South,189,1.0,0.0,61,0.00,,,0.00,vanprod-2.5,2015-03-05 23:30:00,
2015-03-05 18:35:00,17.4,6.3,30.44,South,189,0.0,2.0,61,0.00,,,0.00,vanprod-2.5,2015-03-05 23:35:00,
2015-03-05 18:40:00,17.2,6.1,30.45,South,189,0.0,0.0,61,0.00,,,0.00,vanprod-2.5,2015-03-05 23:40:00,
2015-03-05 18:45:00,17.0,6.2,30.45,South,189,1.0,1.0,62,0.00,,,0.00,vanprod-2.5,2015-03-05 23:45:00,
2015-03-05 18:50:00,16.8,6.1,30.45,South,189,0.0,0.0,62,0.00,,,0.00,vanprod-2.5,2015-03-05 23:50:00,
2015-03-05 18:55:00,16.6,5.9,30.45,South,189,0.0,0.0,62,0.00,,,0.00,vanprod-2.5,2015-03-05 23:55:00,
2015-03-05 19:00:00,16.2,5.8,30.45,South,189,0.0,0.0,63,0.00,,,0.00,vanprod-2.5,2015-03-06 00:00:00,
2015-03-05 19:05:00,15.9,5.5,30.46,South,189,0.0,0.0,63,0.00,,,0.00,vanprod-2.5,2015-03-06 00:05:00,
2015-03-05 19:10:00,15.7,5.7,30.46,South,189,0.0,0.0,64,0.00,,,0.00,vanprod-2.5,2015-03-06 00:10:00,
2015-03-05 19:15:00,15.5,5.5,30.46,South,189,0.0,2.0,64,0.00,,,0.00,vanprod-2.5,2015-03-06 00:15:00,
2015-03-05 19:20:00,15.3,5.7,30.46,South,189,0.0,0.0,65,0.00,,,0.00,vanprod-2.5,2015-03-06 00:20:00,
2015-03-05 19:25:00,15.1,5.5,30.46,South,189,0.0,0.0,65,0.00,,,0.00,vanprod-2.5,2015-03-06 00:25:00,
2015-03-05 19:30:00,15.1,5.8,30.47,South,189,0.0,0.0,66,0.00,,,0.00,vanprod-2.5,2015-03-06 00:30:00,
2015-03-05 19:35:00,14.9,5.6,30.47,South,189,0.0,0.0,66,0.00,,,0.00,vanprod-2.5,2015-03-06 00:35:00,
2015-03-05 19:40:00,14.5,5.2,30.47,South,189,0.0,0.0,66,0.00,,,0.00,vanprod-2.5,2015-03-06 00:40:00,
2015-03-05 19:45:00,14.1,5.2,30.47,South,189,0.0,0.0,67,0.00,,,0.00,vanprod-2.5,2015-03-06 00:45:00,
2015-03-05 19:50:00,13.7,5.4,30.47,South,189,0.0,0.0,69,0.00,,,0.00,vanprod-2.5,2015-03-06 00:50:00,
2015-03-05 19:55:00,13.3,5.7,30.47,South,189,0.0,0.0,71,0.00,,,0.00,vanprod-2.5,2015-03-06 00:55:00,
2015-03-05 20:00:00,13.0,5.4,30.48,South,189,0.0,0.0,71,0.00,,,0.00,vanprod-2.5,2015-03-06 01:00:00,